Карточка аэропорта USNN

Внимание!
Информация на этой странице в стадии наполнения.
Если вы не увидели какой-то информации, или заметили неточность - пожалуйста сообщите нам!
Спасибо!
Команда RU-STAFF
Название аэропортаНижневартовск
Название аэропорта (англ.)Nizhnevartovsk
Превышение177 ft. (53.9 m.)
Координаты60°57', 76°28.998'
Высота перехода800m
Эшелон переходаQFE>=756mm:FL040; QFE<756=>729:FL050; QFE<729:FL060
Коды ответчика5630-5633
Зона ОрВДТюмень РПИ (USTV)
Данные METARUSNN 252200Z 14003MPS 9999 FEW030CB 19/18 Q1001 R03/29//60 NOSIG RMK QFE747
Проноз погоды (TAF)USNN 251948Z 2521/2621 13003G10MPS 8000 -SHRA BKN016CB TEMPO 2521/2603 VRB17MPS 0300 TSRA FG SQ SCT003 BKN016CB BECMG 2603/2604 20005G12MPS 9999 NSW BECMG 2606/2607 SCT030CB BECMG 2615/2616 15003G08MPS
NOTAMshow/hide NOTAM
AWOS   TABLE

Информация о ВПП

ВПП Длина ВПП (м.) Покрытие Курс ВПП Частота ILS
033200Асфальтобетон26110.5
213200Асфальтобетон206111.9

Диспетчерские позиции

Позывной Наименование органа УВД Частота
USNN_APPНижневартовск - Круг120.400
USNN_TWRНижневартовск - Вышка118.100



Спутниковое изображение